Hourly Data Report for October 02, 2017

All times are specified in Local Standard Time (LST). Add 1 hour to adjust for Daylight Saving Time where and when it is observed.

PORT HAWKESBURY
NOVA SCOTIA

45°39'24.000" N
61°22'05.000" W
114.90 m
8204495
71041
YPD

Download Data

Hourly Data (October 2017)
Hourly Data Report for October 2, 2017
Temp Definition
°C
Dew Point Temp Definition
°C
Rel Hum Definition
%
Wind Dir Definition
10's deg

Wind Spd Definition
km/h
Visibility Definition
km
Stn Press Definition
kPa
Hmdx Definition


Wind Chill Definition


Weather Definition


TIME
00:00 Legend Double Dagger 10.6 7.0 78 30 18 16.1 100.37     LegendNANA
01:00 Legend Double Dagger 10.5 8.1 85 30 18 16.1 100.40     LegendNANA
02:00 Legend Double Dagger 9.9 8.3 90 30 8 16.1 100.38     LegendNANA
03:00 Legend Double Dagger 9.3 8.1 92 28 8 16.1 100.36     LegendNANA
04:00 Legend Double Dagger 9.8 8.6 92 31 8 16.1 100.40     LegendNANA
05:00 Legend Double Dagger 8.6 7.7 94 2 5 16.1 100.50     LegendNANA
06:00 Legend Double Dagger 9.5 7.6 88 1 8 16.1 100.60     LegendNANA
07:00 Legend Double Dagger 10.3 7.3 82 36 8 16.1 100.65     LegendNANA
08:00 Legend Double Dagger 12.0 5.5 64 1 13 16.1 100.72     LegendNANA
09:00 Legend Double Dagger 13.4 5.2 57 36 18 16.1 100.77     LegendNANA
10:00 Legend Double Dagger 13.6 5.2 57 31 21 16.1 100.78     LegendNANA
11:00 Legend Double Dagger 13.6 3.4 50 34 21 16.1 100.80     LegendNANA
12:00 Legend Double Dagger 11.4 2.7 55 34 18 16.1 100.89     LegendNANA
13:00 Legend Double Dagger 11.0 2.6 56 35 21 16.1 100.93     LegendNANA
14:00 Legend Double Dagger 10.5 3.2 60 36 22 16.1 100.99     LegendNANA
15:00 Legend Double Dagger 10.4 3.1 60 34 15 16.1 101.06     LegendNANA
16:00 Legend Double Dagger 8.9 3.3 68 35 22 16.1 101.12     LegendNANA
17:00 Legend Double Dagger 7.6 2.7 71 35 17 16.1 101.20     LegendNANA
18:00 Legend Double Dagger 6.9 3.5 79 36 17 16.1 101.33     LegendNANA
19:00 Legend Double Dagger 7.4 3.1 74 35 17 16.1 101.39     LegendNANA
20:00 Legend Double Dagger 7.4 3.1 74 35 13 16.1 101.47     LegendNANA
21:00 Legend Double Dagger 7.6 3.1 73 36 9 16.1 101.55     LegendNANA
22:00 Legend Double Dagger 7.7 3.4 74 1 9 16.1 101.58     LegendNANA
23:00 Legend Double Dagger 7.3 3.8 78 34 5 16.1 101.62     LegendNANA

Notes on Data Quality.

Legend

  • E = Estimated
  • M = Missing
  • NA = Not Available
  • ‡ = Partner data that is not subject to review by the National Climate Archives
Date modified: